Location: Caltech
(34.1382°N, 118.1253°W)
Time: 05:24:14
(UTC-07:00)

Cosmos 2333 Rocket - Visible Passes

Search period start: 23 March 2017 00:00
Search period end: 02 April 2017 00:00
Orbit: 838 x 863 km, 70.8° (Epoch: 21 March)

Date Brightness Start Highest point End Pass type
(mag) Time Alt. Az. Time Alt. Az. Time Alt. Az.
23 Mar 5.1 04:14:13 10° ESE 04:15:16 10° E 04:16:18 10° E visible
23 Mar 2.2 05:53:01 10° SSW 05:58:42 80° WNW 06:04:27 10° NNE visible
24 Mar 5.1 04:01:55 10° ESE 04:02:57 10° E 04:04:00 10° E visible
24 Mar 2.2 05:40:42 10° SSW 05:46:23 80° WNW 05:52:08 10° NNE visible
25 Mar 5.0 03:49:37 10° ESE 03:50:39 10° E 03:51:40 10° E visible
25 Mar 2.1 05:28:45 12° SSW 05:34:04 80° WNW 05:39:50 10° NNE visible
26 Mar 5.0 03:37:18 10° ESE 03:38:20 10° E 03:39:21 10° E visible
26 Mar 2.1 05:17:45 20° SSW 05:21:45 80° WNW 05:27:31 10° NNE visible
27 Mar 4.9 03:25:01 10° ESE 03:26:01 10° E 03:27:02 10° E visible
27 Mar 2.1 05:06:35 31° SSW 05:09:26 80° WNW 05:15:12 10° NNE visible
28 Mar 4.9 03:13:13 10° ESE 03:13:42 10° E 03:14:42 10° E visible
28 Mar 2.1 04:55:15 44° SSW 04:57:08 80° WNW 05:02:54 10° NNE visible
29 Mar 4.9 03:01:47 10° E 03:01:47 10° E 03:02:23 10° E visible
29 Mar 2.1 04:43:49 61° SW 04:44:49 80° WNW 04:50:35 10° NNE visible
30 Mar 2.0 04:32:16 78° WSW 04:32:30 80° WNW 04:38:16 10° NNE visible
30 Mar 4.2 06:16:52 10° WNW 06:17:39 10° NW 06:18:28 10° NW visible
31 Mar 2.2 04:20:39 74° NNW 04:20:39 74° NNW 04:25:57 10° NNE visible
31 Mar 4.2 06:04:32 10° WNW 06:05:21 10° NW 06:06:10 10° NW visible
01 Apr 2.5 04:08:57 60° N 04:08:57 60° N 04:13:39 10° NNE visible
01 Apr 4.2 05:52:11 10° WNW 05:53:02 10° NW 05:53:52 10° NW visible
